User: anonymous   Login
Location: Jaite
(41.2884°N, 81.5737°W)
Time: 21:24:52
(UTC+00:00)
Language:

NOSS 3-2 (A) - Orbit

View from above orbital plane
View from above orbital plane
View from above satellite
View from above satellite

Ground track
Ground track

The orbit data is extracted from the following two-line orbital elements,

1 28095U 03054A   20056.83413358 0.00000000  00000-0  00000-0 0    07
2 28095  63.4203 318.9706 0396513 358.9986   1.0014 13.41386673    01
Epoch (UTC): 25 February 2020 20:01:09
Eccentricity: 0.0396513
inclination: 63.4203°
perigee height: 807 km
apogee height: 1401 km
right ascension of ascending node: 318.9706°
argument of perigee: 358.9986°
revolutions per day: 13.41386673
mean anomaly at epoch: 1.0014°
orbit number at epoch: 0

The dashed part of the orbit path shows where the satellite is in the earth's shadow,  

DLR